WBANNO,USDM_WEEK,LONGITUDE,LATITUDE,SMVWC_5_CM_MEAN,SMANOM_5_CM_MEAN,SMPERC_5_CM_30COUNTS,SMPERC_5_CM_70COUNTS,SMVWC_10_CM_MEAN,SMANOM_10_CM_MEAN,SMPERC_10_CM_30COUNTS,SMPERC_10_CM_70COUNTS,SMVWC_20_CM_MEAN,SMANOM_20_CM_MEAN,SMPERC_20_CM_30COUNTS,SMPERC_20_CM_70COUNTS,SMVWC_50_CM_MEAN,SMANOM_50_CM_MEAN,SMPERC_50_CM_30COUNTS,SMPERC_50_CM_70COUNTS,SMVWC_100_CM_MEAN,SMANOM_100_CM_MEAN,SMPERC_100_CM_30COUNTS,SMPERC_100_CM_70COUNTS,SMVWC_TOP_CM_MEAN,SMANOM_TOP_CM_MEAN,SMPERC_TOP_CM_30COUNTS,SMPERC_TOP_CM_70COUNTS,SMVWC_COLUMN_CM_MEAN,SMANOM_COLUMN_CM_MEAN,SMPERC_COLUMN_CM_30COUNTS,SMPERC_COLUMN_CM_70COUNTS
54811,20090607,-88.85,41.84,,,,,,,,,,,,,,,,,,,,,,,,,,,,
54811,20090608,-88.85,41.84,,,,,,,,,,,,,,,,,,,,,,,,,,,,
54811,20090609,-88.85,41.84,,,,,,,,,,,,,,,,,,,,,,,,,,,,
54811,20090610,-88.85,41.84,,,,,,,,,,,,,,,,,,,,,,,,,,,,
54811,20090611,-88.85,41.84,,,,,,,,,,,,,,,,,,,,,,,,,,,,
54811,20090612,-88.85,41.84,,,,,,,,,,,,,,,,,,,,,,,,,,,,
54811,20090613,-88.85,41.84,0.413,0.62,0,0.797,0.374,0.33,0,0.673,0.385,0.4,0,0.778,0.426,0.94,0,1,0.504,,,,0.394,0.48,0,0.797,0.42,,,
54811,20090614,-88.85,41.84,0.426,0.69,0,0.88,0.385,0.42,0,0.765,0.394,0.5,0,0.861,0.428,0.99,0,1,0.504,,,,0.406,0.56,0,0.88,0.428,,,
54811,20090615,-88.85,41.84,0.439,0.76,0,1,0.398,0.53,0,0.892,0.405,0.62,0,0.994,0.433,1.06,0,1,0.505,,,,0.419,0.65,0,1,0.436,,,
54811,20090616,-88.85,41.84,0.435,0.73,0,1,0.396,0.52,0,0.892,0.405,0.63,0,0.994,0.436,1.12,0,1,0.505,,,,0.415,0.63,0,1,0.435,,,
54811,20090617,-88.85,41.84,0.432,0.71,0,1,0.394,0.51,0,0.892,0.405,0.65,0,0.994,0.438,1.16,0,1,0.506,,,,0.413,0.62,0,1,0.435,,,
54811,20090618,-88.85,41.84,0.428,0.69,0,1,0.393,0.52,0,0.893,0.405,0.67,0,0.994,0.439,1.19,0,1,0.506,,,,0.411,0.61,0,1,0.434,,,
54811,20090619,-88.85,41.84,0.428,0.69,0,1,0.393,0.53,0,0.911,0.405,0.7,0,1,0.441,1.21,0,1,0.507,,,,0.41,0.62,0,1,0.435,,,
54811,20090620,-88.85,41.84,0.43,0.7,0,1,0.393,0.54,0,1,0.406,0.73,0,1,0.442,1.23,0,1,0.508,,,,0.411,0.63,0,1,0.436,,,
54811,20090621,-88.85,41.84,0.424,0.66,0,1,0.388,0.52,0,1,0.403,0.72,0,1,0.443,1.23,0,1,0.508,,,,0.406,0.6,0,1,0.433,,,
54811,20090622,-88.85,41.84,0.421,0.64,0,1,0.386,0.5,0,1,0.401,0.72,0,1,0.443,1.22,0,1,0.508,,,,0.403,0.58,0,1,0.432,,,
54811,20090623,-88.85,41.84,0.426,0.67,0,1,0.388,0.53,0,1,0.402,0.73,0,1,0.443,1.2,0,1,0.509,,,,0.407,0.61,0,1,0.433,,,
54811,20090624,-88.85,41.84,0.431,0.7,0,1,0.39,0.55,0,1,0.402,0.75,0,1,0.443,1.19,0,1,0.509,,,,0.411,0.63,0,1,0.435,,,
54811,20090625,-88.85,41.84,0.433,0.71,0,1,0.392,0.56,0,1,0.402,0.75,0,1,0.443,1.19,0,1,0.509,,,,0.412,0.65,0,1,0.436,,,
54811,20090626,-88.85,41.84,0.43,0.7,0,1,0.392,0.56,0,1,0.401,0.75,0,1,0.444,1.18,0,1,0.51,,,,0.411,0.64,0,1,0.435,,,
54811,20090627,-88.85,41.84,0.423,0.65,0,0.923,0.39,0.55,0,0.982,0.4,0.74,0,1,0.444,1.18,0,1,0.51,,,,0.407,0.61,0,0.97,0.433,,,
54811,20090628,-88.85,41.84,0.412,0.6,0,0.78,0.387,0.53,0,0.839,0.398,0.72,0,1,0.444,1.18,0,1,0.511,,,,0.4,0.56,0,0.827,0.431,,,
54811,20090629,-88.85,41.84,0.399,0.52,0,0.637,0.382,0.49,0,0.696,0.394,0.68,0,1,0.444,1.18,0,1,0.512,,,,0.391,0.5,0,0.685,0.426,,,
54811,20090630,-88.85,41.84,0.378,0.4,0,0.494,0.372,0.4,0,0.554,0.387,0.62,0,0.893,0.443,1.17,0,1,0.512,,,,0.375,0.4,0,0.542,0.419,,,
54811,20090701,-88.85,41.84,0.358,0.29,0,0.351,0.36,0.31,0,0.411,0.38,0.55,0,0.75,0.442,1.16,0,1,0.513,,,,0.359,0.29,0,0.399,0.411,,,
54811,20090702,-88.85,41.84,0.339,0.18,0,0.208,0.349,0.22,0,0.268,0.372,0.48,0,0.607,0.44,1.14,0,1,0.513,,,,0.344,0.19,0,0.256,0.403,,,
54811,20090703,-88.85,41.84,0.322,0.09,0,0.065,0.337,0.13,0,0.125,0.364,0.42,0,0.464,0.438,1.11,0,1,0.513,,,,0.33,0.09,0,0.113,0.395,,,
54811,20090704,-88.85,41.84,0.308,0.01,0,0,0.327,0.05,0,0,0.357,0.35,0,0.321,0.436,1.09,0,1,0.513,,,,0.318,0.01,0,0,0.388,,,
54811,20090705,-88.85,41.84,0.298,-0.04,0,0,0.318,-0.02,0,0,0.35,0.3,0,0.179,0.434,1.07,0,1,0.513,,,,0.308,-0.05,0,0,0.382,,,
54811,20090706,-88.85,41.84,0.29,-0.07,0,0,0.311,-0.07,0,0,0.344,0.25,0,0.036,0.431,1.05,0,1,0.513,,,,0.301,-0.09,0,0,0.378,,,
54811,20090707,-88.85,41.84,0.284,-0.09,0,0,0.305,-0.1,0,0,0.34,0.22,0,0,0.43,1.04,0,1,0.513,,,,0.295,-0.12,0,0,0.374,,,
54811,20090708,-88.85,41.84,0.278,-0.11,0,0,0.3,-0.13,0,0,0.335,0.18,0,0,0.428,1.04,0,1,0.513,,,,0.289,-0.14,0,0,0.371,,,
54811,20090709,-88.85,41.84,0.276,-0.11,0,0,0.295,-0.15,0,0,0.332,0.16,0,0,0.427,1.04,0,1,0.513,,,,0.286,-0.15,0,0,0.368,,,
54811,20090710,-88.85,41.84,0.277,-0.09,0,0,0.292,-0.17,0,0,0.328,0.14,0,0,0.426,1.04,0,1,0.513,,,,0.284,-0.14,0,0,0.367,,,
54811,20090711,-88.85,41.84,0.286,0,0,0.113,0.29,-0.17,0,0,0.326,0.13,0,0,0.425,1.05,0,1,0.512,,,,0.288,-0.09,0,0.024,0.368,,,
54811,20090712,-88.85,41.84,0.299,0.12,0,0.256,0.29,-0.15,0,0,0.324,0.12,0,0,0.424,1.05,0,1,0.512,,,,0.295,-0.01,0,0.143,0.37,,,
54811,20090713,-88.85,41.84,0.308,0.21,0,0.399,0.29,-0.13,0,0,0.323,0.11,0,0,0.423,1.05,0,1,0.512,,,,0.299,0.05,0,0.161,0.371,,,
54811,20090714,-88.85,41.84,0.314,0.28,0,0.488,0.29,-0.12,0,0,0.321,0.11,0,0,0.422,1.05,0,1,0.512,,,,0.302,0.09,0,0.161,0.372,,,
54811,20090715,-88.85,41.84,0.319,0.33,0,0.488,0.288,-0.12,0,0,0.32,0.1,0,0,0.421,1.04,0,1,0.512,,,,0.304,0.12,0,0.161,0.372,,,
54811,20090716,-88.85,41.84,0.32,0.36,0,0.488,0.287,-0.11,0,0,0.318,0.1,0,0,0.42,1.03,0,1,0.512,,,,0.304,0.14,0,0.161,0.371,,,
54811,20090717,-88.85,41.84,0.318,0.36,0,0.488,0.284,-0.12,0,0,0.317,0.09,0,0,0.419,1.02,0,1,0.512,,,,0.301,0.13,0,0.161,0.37,,,
54811,20090718,-88.85,41.84,0.307,0.29,0,0.375,0.28,-0.15,0,0,0.314,0.07,0,0,0.418,1.01,0,1,0.512,,,,0.293,0.08,0,0.137,0.366,,,
54811,20090719,-88.85,41.84,0.29,0.18,0,0.232,0.273,-0.2,0.036,0,0.31,0.03,0,0,0.417,1,0,1,0.511,,,,0.281,-0.01,0,0.018,0.36,,,
54811,20090720,-88.85,41.84,0.277,0.09,0,0.089,0.265,-0.26,0.143,0,0.306,0,0,0,0.416,0.97,0,1,0.511,,,,0.271,-0.08,0,0,0.355,,,
54811,20090721,-88.85,41.84,0.266,0.02,0,0,0.258,-0.31,0.286,0,0.301,-0.05,0,0,0.414,0.95,0,1,0.511,,,,0.262,-0.15,0.054,0,0.35,,,
54811,20090722,-88.85,41.84,0.257,-0.04,0,0,0.251,-0.36,0.429,0,0.297,-0.1,0,0,0.413,0.93,0,1,0.51,,,,0.254,-0.21,0.196,0,0.346,,,
54811,20090723,-88.85,41.84,0.25,-0.08,0,0,0.246,-0.4,0.571,0,0.293,-0.14,0,0,0.412,0.91,0,1,0.511,,,,0.248,-0.25,0.292,0,0.342,,,
54811,20090724,-88.85,41.84,0.253,-0.04,0,0.089,0.247,-0.38,0.619,0,0.291,-0.17,0,0,0.411,0.89,0,1,0.511,,,,0.25,-0.22,0.339,0,0.342,,,
54811,20090725,-88.85,41.84,0.265,0.07,0,0.232,0.251,-0.34,0.619,0,0.289,-0.18,0,0,0.41,0.88,0,1,0.511,,,,0.258,-0.14,0.339,0.054,0.345,,,
54811,20090726,-88.85,41.84,0.28,0.22,0,0.375,0.256,-0.28,0.583,0,0.289,-0.19,0,0,0.409,0.86,0,1,0.511,,,,0.268,-0.04,0.339,0.196,0.349,,,
54811,20090727,-88.85,41.84,0.292,0.32,0,0.518,0.261,-0.23,0.476,0,0.29,-0.19,0,0,0.408,0.85,0,1,0.51,,,,0.277,0.05,0.339,0.202,0.352,,,
54811,20090728,-88.85,41.84,0.302,0.42,0,0.655,0.266,-0.17,0.333,0,0.29,-0.19,0,0,0.407,0.85,0,1,0.51,,,,0.284,0.13,0.286,0.202,0.355,,,
54811,20090729,-88.85,41.84,0.314,0.53,0,0.798,0.272,-0.12,0.19,0,0.292,-0.17,0,0,0.407,0.84,0,1,0.51,,,,0.293,0.22,0.143,0.202,0.359,,,
54811,20090730,-88.85,41.84,0.324,0.62,0,0.851,0.276,-0.07,0.048,0,0.293,-0.16,0,0,0.406,0.84,0,1,0.509,,,,0.3,0.3,0.048,0.202,0.362,,,
54811,20090731,-88.85,41.84,0.323,0.62,0,0.762,0.274,-0.08,0,0,0.292,-0.16,0,0,0.406,0.83,0,1,0.509,,,,0.298,0.3,0,0.202,0.361,,,
54811,20090801,-88.85,41.84,0.312,0.54,0,0.619,0.269,-0.12,0,0,0.291,-0.17,0,0,0.405,0.83,0,1,0.509,,,,0.291,0.25,0,0.149,0.357,,,
54811,20090802,-88.85,41.84,0.297,0.43,0,0.476,0.263,-0.17,0,0,0.289,-0.19,0,0,0.404,0.82,0,1,0.509,,,,0.28,0.17,0,0.006,0.352,,,
54811,20090803,-88.85,41.84,0.286,0.34,0,0.333,0.257,-0.22,0,0,0.287,-0.2,0,0,0.402,0.82,0,1,0.509,,,,0.272,0.1,0,0,0.348,,,
54811,20090804,-88.85,41.84,0.276,0.27,0,0.196,0.252,-0.26,0.06,0,0.285,-0.22,0,0,0.401,0.81,0,1,0.509,,,,0.264,0.04,0,0,0.345,,,
54811,20090805,-88.85,41.84,0.264,0.18,0,0.054,0.247,-0.31,0.202,0,0.283,-0.24,0,0,0.399,0.81,0,1,0.509,,,,0.256,-0.03,0,0,0.34,,,
54811,20090806,-88.85,41.84,0.254,0.1,0,0,0.241,-0.36,0.345,0,0.28,-0.26,0,0,0.398,0.8,0,1,0.509,,,,0.247,-0.1,0.018,0,0.336,,,
54811,20090807,-88.85,41.84,0.243,0.02,0,0,0.236,-0.41,0.488,0,0.277,-0.28,0.101,0,0.396,0.8,0,1,0.509,,,,0.24,-0.17,0.161,0,0.332,,,
54811,20090808,-88.85,41.84,0.249,0.06,0,0.095,0.238,-0.39,0.542,0,0.275,-0.29,0.155,0,0.395,0.79,0,1,0.509,,,,0.244,-0.13,0.202,0.089,0.333,,,
54811,20090809,-88.85,41.84,0.264,0.17,0,0.238,0.246,-0.31,0.542,0,0.276,-0.29,0.155,0,0.393,0.79,0,1,0.509,,,,0.255,-0.04,0.202,0.232,0.338,,,
54811,20090810,-88.85,41.84,0.277,0.28,0,0.381,0.254,-0.24,0.542,0,0.277,-0.27,0.155,0,0.392,0.8,0,1,0.509,,,,0.266,0.05,0.202,0.375,0.342,,,
54811,20090811,-88.85,41.84,0.289,0.37,0,0.524,0.261,-0.18,0.482,0,0.278,-0.25,0.155,0,0.391,0.8,0,1,0.51,,,,0.275,0.13,0.202,0.435,0.346,,,
54811,20090812,-88.85,41.84,0.299,0.45,0,0.667,0.267,-0.12,0.339,0,0.28,-0.23,0.155,0,0.389,0.8,0,1,0.51,,,,0.283,0.2,0.202,0.435,0.349,,,
54811,20090813,-88.85,41.84,0.308,0.52,0,0.667,0.273,-0.06,0.196,0,0.281,-0.22,0.155,0,0.387,0.8,0,1,0.51,,,,0.29,0.26,0.185,0.435,0.352,,,
54811,20090814,-88.85,41.84,0.314,0.58,0,0.667,0.278,-0.02,0.054,0,0.283,-0.2,0.054,0,0.386,0.79,0,1,0.51,,,,0.296,0.31,0.042,0.435,0.354,,,
54811,20090815,-88.85,41.84,0.305,0.51,0,0.571,0.275,-0.05,0.006,0,0.284,-0.21,0,0,0.384,0.79,0,1,0.511,,,,0.29,0.26,0,0.345,0.352,,,
54811,20090816,-88.85,41.84,0.285,0.36,0,0.429,0.264,-0.15,0.149,0,0.282,-0.24,0.03,0,0.383,0.78,0,1,0.511,,,,0.274,0.13,0,0.202,0.345,,,
54811,20090817,-88.85,41.84,0.269,0.24,0,0.292,0.253,-0.25,0.292,0,0.279,-0.28,0.155,0,0.381,0.77,0,1,0.511,,,,0.261,0,0,0.06,0.339,,,
54811,20090818,-88.85,41.84,0.264,0.21,0,0.292,0.244,-0.33,0.435,0,0.276,-0.33,0.298,0,0.38,0.76,0,1,0.511,,,,0.254,-0.06,0,0,0.335,,,
54811,20090819,-88.85,41.84,0.26,0.19,0,0.226,0.236,-0.41,0.577,0,0.272,-0.38,0.44,0,0.379,0.74,0,1,0.512,,,,0.248,-0.12,0,0,0.332,,,
54811,20090820,-88.85,41.84,0.267,0.24,0,0.304,0.233,-0.45,0.643,0,0.269,-0.43,0.583,0,0.377,0.72,0,1,0.511,,,,0.25,-0.11,0,0.077,0.332,,,
54811,20090821,-88.85,41.84,0.285,0.38,0,0.446,0.238,-0.43,0.643,0,0.267,-0.47,0.726,0,0.376,0.69,0,1,0.511,,,,0.261,-0.02,0,0.22,0.335,,,
54811,20090822,-88.85,41.84,0.302,0.5,0,0.589,0.243,-0.4,0.637,0,0.265,-0.51,0.869,0,0.375,0.65,0,1,0.511,,,,0.273,0.07,0,0.363,0.339,,,
54811,20090823,-88.85,41.84,0.319,0.63,0,0.732,0.25,-0.35,0.494,0,0.264,-0.53,0.982,0,0.374,0.59,0,0.923,0.51,,,,0.284,0.16,0,0.369,0.343,,,
54811,20090824,-88.85,41.84,0.333,0.73,0,0.869,0.256,-0.31,0.351,0,0.263,-0.56,1,0,0.372,0.52,0,0.78,0.51,,,,0.294,0.24,0,0.369,0.347,,,
54811,20090825,-88.85,41.84,0.335,0.73,0,0.798,0.26,-0.27,0.214,0,0.263,-0.57,1,0,0.371,0.45,0,0.637,0.51,,,,0.298,0.27,0,0.369,0.348,,,
54811,20090826,-88.85,41.84,0.336,0.72,0,0.726,0.264,-0.24,0.214,0,0.264,-0.58,1,0,0.37,0.38,0,0.494,0.509,,,,0.3,0.28,0,0.369,0.349,,,
54811,20090827,-88.85,41.84,0.35,0.81,0,0.792,0.277,-0.13,0.149,0.089,0.269,-0.53,0.935,0.012,0.369,0.32,0,0.351,0.509,,,,0.314,0.39,0,0.435,0.355,,,
54811,20090828,-88.85,41.84,0.357,0.84,0,0.792,0.29,-0.01,0.149,0.232,0.287,-0.36,0.792,0.155,0.369,0.28,0,0.238,0.509,,,,0.324,0.46,0,0.435,0.363,,,
54811,20090829,-88.85,41.84,0.364,0.87,0,0.792,0.303,0.09,0.149,0.375,0.304,-0.19,0.649,0.298,0.371,0.25,0,0.238,0.509,,,,0.333,0.53,0,0.435,0.37,,,
54811,20090830,-88.85,41.84,0.371,0.91,0,0.792,0.314,0.19,0.149,0.518,0.319,-0.04,0.506,0.44,0.373,0.26,0,0.315,0.509,,,,0.342,0.6,0,0.571,0.377,,,
54811,20090831,-88.85,41.84,0.378,0.95,0,0.792,0.325,0.28,0.149,0.565,0.334,0.11,0.363,0.494,0.376,0.29,0,0.458,0.508,,,,0.352,0.67,0,0.714,0.384,,,
54811,20090901,-88.85,41.84,0.388,1.01,0,0.863,0.337,0.38,0.143,0.565,0.347,0.24,0.22,0.494,0.378,0.31,0,0.601,0.508,,,,0.362,0.75,0,0.857,0.392,,,
54811,20090902,-88.85,41.84,0.397,1.08,0,1,0.349,0.48,0,0.565,0.36,0.37,0.077,0.494,0.381,0.33,0,0.744,0.508,,,,0.373,0.84,0,1,0.399,,,
54811,20090903,-88.85,41.84,0.385,0.98,0,1,0.349,0.47,0,0.476,0.368,0.45,0,0.482,0.383,0.36,0,0.887,0.507,,,,0.367,0.78,0,0.988,0.398,,,
54811,20090904,-88.85,41.84,0.37,0.87,0,1,0.341,0.41,0,0.333,0.362,0.39,0,0.339,0.385,0.37,0,1,0.507,,,,0.355,0.69,0,0.845,0.393,,,
54811,20090905,-88.85,41.84,0.355,0.77,0,0.952,0.334,0.35,0,0.19,0.357,0.33,0,0.196,0.386,0.38,0,1,0.506,,,,0.344,0.59,0,0.702,0.387,,,
54811,20090906,-88.85,41.84,0.341,0.67,0,0.81,0.326,0.29,0,0.048,0.352,0.28,0,0.054,0.385,0.37,0,1,0.506,,,,0.334,0.51,0,0.56,0.382,,,
54811,20090907,-88.85,41.84,0.328,0.58,0,0.667,0.32,0.24,0,0,0.348,0.24,0,0,0.385,0.36,0,1,0.506,,,,0.324,0.43,0,0.417,0.377,,,
54811,20090908,-88.85,41.84,0.315,0.5,0,0.524,0.312,0.18,0,0,0.345,0.19,0,0,0.385,0.35,0,1,0.506,,,,0.314,0.35,0,0.274,0.372,,,
54811,20090909,-88.85,41.84,0.303,0.42,0,0.381,0.303,0.12,0,0,0.341,0.15,0,0,0.384,0.35,0,1,0.506,,,,0.303,0.28,0,0.131,0.367,,,
54811,20090910,-88.85,41.84,0.292,0.36,0,0.238,0.295,0.05,0,0,0.337,0.1,0,0,0.384,0.35,0,1,0.506,,,,0.293,0.21,0,0,0.363,,,
54811,20090911,-88.85,41.84,0.283,0.31,0,0.095,0.286,-0.02,0.065,0,0.333,0.06,0,0,0.384,0.34,0,1,0.507,,,,0.284,0.14,0,0,0.358,,,
54811,20090912,-88.85,41.84,0.275,0.26,0,0,0.276,-0.09,0.208,0,0.328,0.01,0,0,0.383,0.34,0,1,0.507,,,,0.276,0.08,0,0,0.354,,,
54811,20090913,-88.85,41.84,0.268,0.21,0,0,0.267,-0.16,0.351,0,0.323,-0.04,0,0,0.383,0.33,0,1,0.507,,,,0.268,0.03,0,0,0.35,,,
54811,20090914,-88.85,41.84,0.261,0.17,0,0,0.258,-0.24,0.494,0,0.317,-0.1,0,0,0.383,0.33,0,1,0.508,,,,0.26,-0.03,0,0,0.345,,,
54811,20090915,-88.85,41.84,0.254,0.12,0,0,0.249,-0.3,0.637,0,0.311,-0.16,0.107,0,0.382,0.32,0,1,0.507,,,,0.252,-0.08,0,0,0.341,,,
54811,20090916,-88.85,41.84,0.249,0.08,0,0,0.241,-0.37,0.78,0,0.305,-0.22,0.25,0,0.381,0.31,0,1,0.507,,,,0.245,-0.13,0,0,0.336,,,
54811,20090917,-88.85,41.84,0.242,0.03,0,0,0.233,-0.43,0.923,0,0.298,-0.28,0.393,0,0.38,0.3,0,1,0.507,,,,0.238,-0.19,0.077,0,0.332,,,
54811,20090918,-88.85,41.84,0.236,-0.01,0,0,0.225,-0.48,1,0,0.29,-0.35,0.536,0,0.379,0.29,0,1,0.508,,,,0.231,-0.23,0.22,0,0.328,,,
54811,20090919,-88.85,41.84,0.23,-0.06,0,0,0.218,-0.51,1,0,0.283,-0.42,0.679,0,0.377,0.28,0,1,0.508,,,,0.224,-0.28,0.363,0,0.323,,,
54811,20090920,-88.85,41.84,0.225,-0.1,0,0,0.213,-0.54,1,0,0.276,-0.49,0.821,0,0.376,0.28,0,1,0.508,,,,0.219,-0.32,0.506,0,0.32,,,
54811,20090921,-88.85,41.84,0.23,-0.07,0,0.083,0.211,-0.54,1,0,0.271,-0.52,0.964,0,0.375,0.28,0,1,0.507,,,,0.22,-0.3,0.56,0,0.319,,,
54811,20090922,-88.85,41.84,0.24,0.01,0,0.226,0.212,-0.51,1,0,0.268,-0.54,1,0,0.374,0.27,0,0.988,0.508,,,,0.226,-0.25,0.56,0,0.32,,,
54811,20090923,-88.85,41.84,0.256,0.13,0,0.369,0.219,-0.44,0.875,0,0.267,-0.53,0.881,0,0.372,0.26,0,0.982,0.508,,,,0.237,-0.15,0.56,0.119,0.324,,,
54811,20090924,-88.85,41.84,0.272,0.25,0,0.512,0.227,-0.36,0.732,0,0.268,-0.51,0.738,0,0.371,0.26,0,0.958,0.507,,,,0.249,-0.04,0.482,0.167,0.329,,,
54811,20090925,-88.85,41.84,0.288,0.37,0,0.655,0.235,-0.28,0.589,0,0.269,-0.48,0.595,0,0.37,0.25,0,0.946,0.507,,,,0.261,0.06,0.339,0.167,0.334,,,
54811,20090926,-88.85,41.84,0.303,0.48,0,0.798,0.243,-0.2,0.446,0,0.272,-0.43,0.452,0,0.369,0.25,0,0.94,0.507,,,,0.273,0.16,0.196,0.167,0.339,,,
54811,20090927,-88.85,41.84,0.318,0.6,0,0.94,0.252,-0.13,0.304,0,0.274,-0.38,0.31,0,0.368,0.25,0,0.923,0.506,,,,0.285,0.27,0.054,0.167,0.344,,,
54811,20090928,-88.85,41.84,0.326,0.66,0,1,0.258,-0.07,0.161,0,0.276,-0.35,0.167,0,0.367,0.25,0,0.923,0.506,,,,0.292,0.33,0,0.196,0.347,,,
54811,20090929,-88.85,41.84,0.329,0.68,0,1,0.261,-0.04,0.018,0,0.277,-0.33,0.024,0,0.367,0.25,0,0.923,0.506,,,,0.295,0.35,0,0.196,0.348,,,
54811,20090930,-88.85,41.84,0.323,0.63,0,1,0.258,-0.06,0,0,0.276,-0.34,0.012,0,0.366,0.24,0,0.857,0.505,,,,0.291,0.32,0,0.077,0.346,,,
54811,20091001,-88.85,41.84,0.317,0.58,0,0.917,0.255,-0.08,0,0,0.274,-0.35,0.048,0,0.365,0.24,0,0.827,0.505,,,,0.286,0.28,0,0.03,0.343,,,
54811,20091002,-88.85,41.84,0.323,0.62,0,0.869,0.258,-0.06,0,0.054,0.276,-0.33,0.113,0.024,0.364,0.23,0,0.738,0.505,,,,0.29,0.3,0,0.101,0.345,,,
54811,20091003,-88.85,41.84,0.338,0.71,0,0.869,0.272,0.03,0,0.196,0.287,-0.22,0.113,0.167,0.363,0.22,0,0.631,0.506,,,,0.305,0.38,0,0.244,0.353,,,
54811,20091004,-88.85,41.84,0.352,0.8,0,0.869,0.285,0.13,0,0.339,0.298,-0.11,0.113,0.31,0.362,0.21,0,0.524,0.506,,,,0.319,0.46,0,0.387,0.361,,,
54811,20091005,-88.85,41.84,0.363,0.86,0,0.869,0.298,0.22,0,0.482,0.308,-0.01,0.113,0.375,0.361,0.2,0,0.393,0.506,,,,0.33,0.52,0,0.5,0.367,,,
54811,20091006,-88.85,41.84,0.373,0.91,0,0.869,0.31,0.3,0,0.625,0.318,0.08,0.113,0.375,0.36,0.19,0,0.262,0.506,,,,0.341,0.58,0,0.643,0.373,,,
54811,20091007,-88.85,41.84,0.386,0.99,0,0.869,0.322,0.38,0,0.768,0.328,0.17,0.101,0.375,0.359,0.18,0,0.19,0.505,,,,0.354,0.65,0,0.786,0.38,,,
54811,20091008,-88.85,41.84,0.399,1.06,0,0.952,0.334,0.45,0,0.851,0.337,0.25,0.065,0.375,0.358,0.17,0,0.107,0.506,,,,0.366,0.72,0,0.929,0.387,,,
54811,20091009,-88.85,41.84,0.4,1.05,0,1,0.34,0.48,0,0.798,0.343,0.29,0,0.351,0.358,0.16,0,0.065,0.506,,,,0.37,0.74,0,1,0.389,,,
54811,20091010,-88.85,41.84,0.4,1.03,0,1,0.34,0.44,0,0.762,0.34,0.24,0,0.208,0.357,0.15,0,0.042,0.506,,,,0.37,0.72,0,1,0.389,,,
54811,20091011,-88.85,41.84,0.398,1,0,1,0.339,0.4,0,0.696,0.338,0.19,0,0.065,0.356,0.14,0,0.024,0.506,,,,0.369,0.69,0,1,0.387,,,
54811,20091012,-88.85,41.84,0.398,0.97,0,1,0.338,0.36,0,0.554,0.337,0.16,0,0,0.356,0.13,0,0.012,0.505,,,,0.368,0.67,0,1,0.387,,,
54811,20091013,-88.85,41.84,0.398,0.95,0,1,0.339,0.32,0,0.411,0.336,0.12,0,0,0.355,0.11,0,0.012,0.505,,,,0.369,0.64,0,1,0.387,,,
54811,20091014,-88.85,41.84,0.397,0.91,0,1,0.339,0.28,0,0.268,0.335,0.1,0,0,0.354,0.1,0,0.012,0.505,,,,0.368,0.6,0,1,0.386,,,
54811,20091015,-88.85,41.84,0.398,0.89,0,1,0.339,0.24,0,0.185,0.335,0.07,0,0,0.353,0.08,0,0.006,0.503,,,,0.369,0.58,0,1,0.386,,,
54811,20091016,-88.85,41.84,0.406,0.92,0,1,0.345,0.24,0,0.185,0.337,0.08,0,0,0.352,0.07,0,0.006,0.502,,,,0.376,0.59,0,1,0.388,,,
54811,20091017,-88.85,41.84,0.405,0.89,0,1,0.346,0.21,0,0.077,0.34,0.09,0,0.006,0.351,0.06,0,0,0.5,,,,0.376,0.56,0,1,0.388,,,
54811,20091018,-88.85,41.84,0.405,0.87,0,1,0.346,0.19,0,0,0.341,0.09,0,0.006,0.35,0.05,0,0,0.499,,,,0.375,0.53,0,1,0.388,,,
54811,20091019,-88.85,41.84,0.404,0.85,0,1,0.346,0.17,0,0,0.343,0.09,0,0.012,0.35,0.04,0,0,0.498,,,,0.375,0.51,0,1,0.388,,,
54811,20091020,-88.85,41.84,0.404,0.84,0,1,0.347,0.15,0,0,0.343,0.09,0,0.012,0.349,0.03,0,0,0.497,,,,0.375,0.49,0,1,0.388,,,
54811,20091021,-88.85,41.84,0.404,0.83,0,1,0.347,0.13,0,0,0.345,0.09,0,0.012,0.349,0.03,0,0,0.497,,,,0.376,0.48,0,0.952,0.388,,,
54811,20091022,-88.85,41.84,0.403,0.82,0,1,0.348,0.12,0,0,0.346,0.09,0,0.012,0.349,0.03,0,0,0.496,,,,0.376,0.46,0,0.82,0.389,,,
54811,20091023,-88.85,41.84,0.404,0.82,0,1,0.35,0.12,0,0.078,0.35,0.12,0,0.084,0.352,0.05,0,0.048,0.496,,,,0.377,0.45,0,0.802,0.39,,,
54811,20091024,-88.85,41.84,0.407,0.82,0,1,0.352,0.12,0,0.084,0.353,0.15,0,0.222,0.361,0.14,0,0.192,0.496,,,,0.38,0.44,0,0.802,0.394,,,
54811,20091025,-88.85,41.84,0.409,0.81,0,1,0.354,0.11,0,0.084,0.356,0.17,0,0.329,0.369,0.22,0,0.335,0.495,,,,0.381,0.43,0,0.802,0.397,,,
54811,20091026,-88.85,41.84,0.415,0.83,0,1,0.357,0.13,0,0.126,0.359,0.21,0,0.365,0.378,0.31,0,0.479,0.496,,,,0.386,0.45,0,0.802,0.401,,,
54811,20091027,-88.85,41.84,0.422,0.86,0,1,0.362,0.16,0,0.161,0.364,0.26,0,0.506,0.388,0.4,0,0.619,0.496,,,,0.392,0.48,0,0.804,0.406,,,
54811,20091028,-88.85,41.84,0.428,0.88,0,1,0.365,0.17,0,0.161,0.368,0.29,0,0.649,0.397,0.48,0,0.762,0.496,,,,0.396,0.5,0,0.851,0.411,,,
54811,20091029,-88.85,41.84,0.433,0.91,0,1,0.369,0.19,0,0.161,0.372,0.33,0,0.768,0.405,0.56,0,0.905,0.496,,,,0.401,0.52,0,0.982,0.415,,,
54811,20091030,-88.85,41.84,0.432,0.9,0,1,0.369,0.2,0,0.143,0.373,0.34,0,0.804,0.412,0.63,0,1,0.497,,,,0.4,0.53,0,1,0.416,,,
54811,20091031,-88.85,41.84,0.434,0.92,0,1,0.371,0.23,0,0.268,0.374,0.37,0,0.804,0.415,0.65,0,1,0.498,,,,0.403,0.57,0,1,0.419,,,
54811,20091101,-88.85,41.84,0.434,0.93,0,1,0.372,0.23,0,0.268,0.375,0.38,0,0.839,0.417,0.66,0,1,0.499,,,,0.403,0.58,0,1,0.419,,,
54811,20091102,-88.85,41.84,0.431,0.91,0,1,0.37,0.22,0,0.226,0.374,0.37,0,0.863,0.418,0.66,0,1,0.5,,,,0.4,0.57,0,1,0.419,,,
54811,20091103,-88.85,41.84,0.426,0.88,0,1,0.367,0.18,0,0.19,0.372,0.34,0,0.726,0.417,0.65,0,1,0.502,,,,0.397,0.54,0,1,0.417,,,
54811,20091104,-88.85,41.84,0.423,0.85,0,1,0.365,0.15,0,0.19,0.371,0.31,0,0.583,0.417,0.65,0,1,0.504,,,,0.394,0.52,0,1,0.416,,,
54811,20091105,-88.85,41.84,0.419,0.82,0,1,0.364,0.12,0,0.19,0.37,0.28,0,0.47,0.416,0.64,0,1,0.506,,,,0.391,0.49,0,0.917,0.415,,,
54811,20091106,-88.85,41.84,0.411,0.76,0,1,0.359,0.05,0,0.131,0.366,0.21,0,0.363,0.414,0.62,0,1,0.508,,,,0.385,0.42,0,0.774,0.412,,,
54811,20091107,-88.85,41.84,0.401,0.67,0,1,0.353,-0.04,0,0,0.361,0.11,0,0.22,0.41,0.58,0,1,0.51,,,,0.377,0.33,0,0.631,0.407,,,
54811,20091108,-88.85,41.84,0.394,0.6,0,1,0.349,-0.09,0,0,0.358,0.05,0,0.077,0.408,0.55,0,1,0.512,,,,0.372,0.27,0,0.488,0.404,,,
54811,20091109,-88.85,41.84,0.388,0.54,0,0.988,0.347,-0.14,0,0,0.356,-0.01,0,0.012,0.407,0.53,0,1,0.512,,,,0.367,0.21,0,0.345,0.402,,,
54811,20091110,-88.85,41.84,0.382,0.48,0,0.923,0.345,-0.18,0,0,0.355,-0.07,0,0.006,0.405,0.51,0,1,0.511,,,,0.363,0.16,0,0.202,0.4,,,
54811,20091111,-88.85,41.84,0.375,0.42,0,0.78,0.343,-0.23,0.101,0,0.353,-0.12,0,0.006,0.405,0.49,0,1,0.512,,,,0.359,0.1,0,0.06,0.398,,,
54811,20091112,-88.85,41.84,0.369,0.35,0,0.637,0.34,-0.28,0.244,0,0.351,-0.19,0.077,0,0.404,0.48,0,1,0.51,,,,0.354,0.02,0,0,0.395,,,
54811,20091113,-88.85,41.84,0.362,0.29,0,0.494,0.338,-0.33,0.387,0,0.35,-0.26,0.214,0,0.403,0.47,0,1,0.51,,,,0.35,-0.04,0,0,0.393,,,
54811,20091114,-88.85,41.84,0.357,0.22,0,0.351,0.335,-0.38,0.53,0,0.349,-0.32,0.357,0,0.403,0.45,0,1,0.51,,,,0.346,-0.11,0.006,0,0.391,,,
54811,20091115,-88.85,41.84,0.352,0.16,0,0.208,0.333,-0.43,0.673,0,0.347,-0.38,0.5,0,0.402,0.44,0,1,0.509,,,,0.342,-0.17,0.083,0,0.388,,,
54811,20091116,-88.85,41.84,0.346,0.08,0,0.077,0.33,-0.49,0.815,0,0.346,-0.45,0.643,0,0.401,0.42,0,1,0.509,,,,0.338,-0.24,0.226,0,0.386,,,
54811,20091117,-88.85,41.84,0.341,0,0,0,0.328,-0.55,0.958,0,0.344,-0.51,0.786,0,0.4,0.4,0,1,0.509,,,,0.334,-0.31,0.369,0,0.384,,,
54811,20091118,-88.85,41.84,0.336,-0.09,0.113,0,0.325,-0.61,1,0,0.342,-0.57,0.929,0,0.399,0.38,0,1,0.507,,,,0.33,-0.39,0.512,0,0.382,,,
54811,20091119,-88.85,41.84,0.332,-0.16,0.256,0,0.323,-0.65,1,0,0.341,-0.61,0.994,0,0.398,0.36,0,1,0.507,,,,0.328,-0.45,0.655,0,0.38,,,
54811,20091120,-88.85,41.84,0.329,-0.22,0.369,0,0.322,-0.69,1,0,0.341,-0.64,1,0,0.397,0.35,0,1,0.507,,,,0.325,-0.51,0.798,0,0.379,,,
54811,20091121,-88.85,41.84,0.326,-0.28,0.512,0,0.321,-0.72,1,0,0.34,-0.67,1,0,0.396,0.34,0,1,0.505,,,,0.323,-0.57,0.935,0,0.378,,,
54811,20091122,-88.85,41.84,0.324,-0.34,0.655,0,0.319,-0.76,1,0,0.339,-0.71,1,0,0.396,0.33,0,1,0.505,,,,0.321,-0.63,1,0,0.376,,,
54811,20091123,-88.85,41.84,0.322,-0.38,0.798,0,0.318,-0.79,1,0,0.338,-0.74,1,0,0.395,0.32,0,1,0.505,,,,0.32,-0.68,1,0,0.376,,,
54811,20091124,-88.85,41.84,0.321,-0.42,0.94,0,0.317,-0.8,1,0,0.338,-0.77,1,0,0.394,0.31,0,1,0.504,,,,0.319,-0.73,1,0,0.375,,,
54811,20091125,-88.85,41.84,0.332,-0.31,0.887,0.077,0.321,-0.76,0.935,0,0.339,-0.74,0.946,0,0.394,0.31,0,1,0.505,,,,0.326,-0.65,0.923,0.071,0.378,,,
54811,20091126,-88.85,41.84,0.35,-0.09,0.744,0.22,0.33,-0.66,0.792,0,0.344,-0.63,0.804,0.006,0.395,0.31,0,1,0.505,,,,0.34,-0.49,0.78,0.167,0.385,,,
54811,20091127,-88.85,41.84,0.366,0.1,0.631,0.363,0.337,-0.57,0.649,0,0.349,-0.52,0.667,0.024,0.398,0.32,0,1,0.505,,,,0.352,-0.34,0.637,0.244,0.391,,,
54811,20091128,-88.85,41.84,0.38,0.25,0.488,0.506,0.343,-0.5,0.506,0,0.353,-0.43,0.524,0.024,0.4,0.33,0,1,0.506,,,,0.361,-0.23,0.494,0.244,0.396,,,
54811,20091129,-88.85,41.84,0.392,0.4,0.345,0.649,0.349,-0.43,0.363,0,0.356,-0.35,0.381,0.024,0.401,0.34,0,1,0.505,,,,0.37,-0.12,0.351,0.244,0.401,,,
54811,20091130,-88.85,41.84,0.405,0.53,0.202,0.792,0.354,-0.37,0.262,0,0.36,-0.27,0.238,0.024,0.403,0.34,0,1,0.506,,,,0.379,-0.02,0.208,0.244,0.405,,,
54811,20091201,-88.85,41.84,0.416,0.66,0.06,0.935,0.359,-0.32,0.262,0,0.362,-0.21,0.107,0.024,0.404,0.34,0,1,0.506,,,,0.388,0.08,0.065,0.244,0.409,,,